Probability
0 1 2 2 2 3 3 3 2 1 0 0 0 0 0 0 0 0 0 0 1 0 1 2 3 3 2 2 4 5 5 3 1 0 0 0 0 0 1 1 1 0 0
0 0 1 1 1 3 3 3 3 1 0 0 0 0 0 0 0 0 0 0 1 0 0 1 2 2 2 3 5 6 6 4 2 1 0 0 0 0 0 0 0 0 0
1 1 0 0 1 2 3 3 3 2 1 0 0 0 0 0 0 1 1 1 1 0 0 1 1 2 2 4 6 7 6 5 3 2 1 1 1 0 0 0 0 0 0
2 2 1 1 1 2 3 3 3 2 1 0 0 0 0 1 2 3 3 2 1 1 2 1 2 3 3 4 5 5 5 5 4 4 3 2 2 1 0 0 0 0 0
3 3 3 2 2 2 3 3 2 1 0 0 0 0 1 2 4 5 4 2 1 2 3 3 3 5 5 5 5 5 4 4 5 4 4 3 3 2 1 0 0 0 0
3 3 3 3 2 2 3 3 1 0 0 1 1 1 2 3 5 5 3 1 2 3 5 4 5 6 6 6 7 6 4 5 5 4 4 3 2 2 1 0 0 0 0
3 3 3 3 3 2 2 2 1 1 1 2 3 3 2 3 4 4 2 1 2 3 5 5 5 5 5 6 7 6 5 5 5 5 4 3 2 2 3 2 1 1 1
3 3 3 3 4 4 3 3 3 3 3 4 5 4 2 3 4 4 3 3 3 4 4 4 4 4 5 6 6 6 6 5 5 4 4 4 4 5 5 5 3 3 3
3 3 3 4 4 5 5 6 6 6 5 6 6 5 4 4 5 6 5 5 6 5 4 3 3 4 6 8 9 8 7 6 6 5 4 5 7 8 8 8 7 5 4
3 3 3 4 5 5 5 7 8 9 8 7 7 7 6 6 5 6 8 8 7 6 5 4 6 6 7 9 11 10 7 7 7 6 5 5 6 8 8 8 8 7 6
5 4 5 6 6 6 6 7 9 10 10 9 8 8 7 6 5 5 7 9 8 8 8 9 11 10 9 9 10 9 7 7 6 6 5 5 5 5 4 5 6 6 6
7 7 7 8 9 8 8 8 8 9 10 10 9 8 7 6 4 4 6 7 8 9 10 12 13 13 10 9 8 7 7 6 5 5 5 6 6 4 2 1 2 2 3
9 9 9 10 10 9 9 8 7 7 9 10 10 8 6 4 4 3 5 6 7 8 8 9 10 10 9 8 6 5 5 4 3 2 3 4 4 3 2 0 0 0 1
9 9 10 10 9 9 9 9 7 6 7 9 10 8 5 3 3 3 4 4 5 5 5 5 6 7 7 6 4 3 3 3 1 0 1 1 1 1 1 0 0 0 0
9 9 9 8 8 8 9 9 7 5 6 8 8 7 5 3 3 4 5 5 5 5 4 4 5 6 6 6 4 3 3 3 1 0 0 0 0 0 0 0 0 0 0
11 10 9 8 7 8 9 8 6 5 5 6 7 7 7 6 6 8 10 10 9 8 6 6 6 7 7 6 5 4 4 4 2 1 0 0 0 0 0 0 0 0 0
14 13 11 9 9 9 11 10 8 7 8 9 10 11 12 12 11 12 14 14 13 12 10 8 8 9 8 7 7 7 6 5 4 2 0 0 0 0 0 0 0 0 0
15 15 15 15 13 13 13 14 13 12 13 16 17 17 18 19 18 16 16 15 15 14 11 9 9 9 8 9 11 12 9 8 6 4 1 0 0 0 0 0 0 0 0
18 18 20 21 19 17 16 16 17 19 20 22 23 23 24 24 22 20 17 16 15 14 12 10 9 9 8 9 13 14 13 12 9 5 3 2 1 0 0 0 0 0 0
22 23 25 26 23 20 19 19 20 23 25 26 28 30 29 26 24 22 19 17 18 17 16 13 11 10 10 11 14 15 14 15 12 8 7 6 4 2 0 0 0 0 0
24 25 27 27 25 21 20 20 22 25 26 27 30 32 29 24 20 18 16 16 17 18 18 15 12 12 12 13 14 14 14 15 14 13 12 11 9 6 4 2 1 0 0
22 24 26 26 26 22 18 17 20 25 27 29 31 30 25 20 16 14 12 10 10 12 14 15 14 13 14 14 13 13 13 14 14 14 15 14 13 11 10 6 3 1 0
22 25 28 29 27 22 15 11 13 21 28 31 31 29 24 20 17 15 12 9 7 6 8 13 14 14 14 14 13 13 13 13 13 13 15 15 14 13 11 7 3 1 0
26 28 31 31 30 23 13 6 7 17 26 29 29 27 25 22 19 17 15 13 11 7 6 8 10 12 11 11 11 12 12 12 11 12 13 13 11 9 7 5 3 1 0
29 30 31 31 30 23 13 4 6 16 24 26 25 25 23 20 15 13 14 16 14 10 7 6 7 8 7 6 7 8 10 10 10 11 11 10 8 5 5 6 5 2 1
29 30 30 30 29 23 13 4 6 16 25 25 24 22 20 16 11 9 12 15 14 11 9 7 7 6 5 4 4 5 8 9 10 11 11 9 6 4 4 7 7 4 1
Wind_Speed
3 3 2 2 1 2 3 2 2 3 3 3 3 3 2 1 1 1 3 5 3 3 4 5 6 6 6 6 6 6 7 7 7 7 7 7 7 8 8 8 8 8 8
2 1 2 1 1 1 2 2 3 2 2 2 2 2 2 2 1 2 1 4 5 4 4 4 5 6 6 6 6 6 7 7 7 7 8 8 7 7 8 8 8 8 7
2 1 2 2 2 2 2 2 2 2 2 2 2 2 2 1 1 2 2 1 3 6 4 4 4 5 6 6 6 6 6 6 7 7 8 8 8 8 8 8 8 8 8
1 1 1 2 1 1 2 2 2 1 1 1 1 1 1 2 2 2 2 2 1 2 5 4 4 5 6 6 6 6 6 6 7 7 7 8 8 8 8 8 8 8 8
1 1 1 1 2 1 2 2 2 1 1 1 1 2 2 2 2 2 2 2 2 2 2 5 5 5 6 6 6 6 6 6 6 7 7 8 8 8 8 8 8 8 8
1 1 2 2 2 2 1 1 1 1 1 1 1 0 1 1 2 2 3 2 2 3 3 2 4 6 7 6 6 6 6 7 7 7 7 8 8 8 8 8 8 9 9
0 1 1 2 1 1 1 2 2 2 2 1 2 1 2 3 2 2 2 1 2 2 3 3 3 2 5 9 7 6 6 7 7 7 7 8 8 8 8 8 8 8 8
1 1 1 2 1 1 2 2 2 2 1 1 2 2 2 2 2 2 2 2 2 2 3 3 3 3 3 3 5 7 6 6 6 6 6 7 7 8 8 8 8 8 9
1 1 0 1 1 2 2 2 3 3 2 2 2 3 3 1 0 2 1 1 2 2 2 2 3 3 3 2 3 6 7 6 6 6 6 6 6 7 8 9 9 9 9
1 1 1 1 2 2 1 3 2 2 3 2 2 2 3 3 3 1 2 2 2 2 2 3 2 3 3 3 2 2 5 6 6 6 6 6 6 7 8 9 9 9 9
2 1 1 1 2 2 2 2 2 3 3 3 2 2 2 3 4 4 2 2 2 2 2 2 2 2 2 2 2 3 4 5 5 6 6 6 6 7 7 8 9 10 10
2 2 2 2 2 2 2 3 3 4 3 3 3 3 3 3 3 3 3 3 2 2 1 1 2 2 2 2 1 4 3 4 4 5 6 6 7 7 7 7 8 8 9
1 1 1 2 2 2 3 3 3 3 3 4 4 3 3 3 3 4 4 3 3 2 2 2 2 2 2 1 1 4 3 3 4 4 4 5 6 6 6 6 7 7 7
2 1 2 2 2 3 3 2 3 3 3 4 5 3 3 3 3 4 4 4 4 3 2 2 1 2 1 2 1 3 3 4 4 4 4 4 4 5 5 5 5 5 5
2 2 2 3 3 3 3 3 2 2 3 4 4 4 4 3 3 4 4 4 5 4 2 1 2 1 1 1 1 3 2 3 4 4 4 4 4 5 4 4 4 5 4
2 2 3 3 3 3 3 4 3 2 3 3 3 3 4 4 3 3 4 4 4 5 4 2 2 2 2 2 2 2 2 4 5 5 5 4 4 4 4 5 5 5 5
3 3 3 3 3 3 3 3 4 3 4 4 4 4 4 4 4 4 3 3 4 4 4 3 2 1 1 3 1 2 3 4 4 7 6 5 5 4 4 4 4 4 5
4 3 3 4 4 4 3 4 4 4 4 4 4 4 4 3 4 4 4 4 3 3 4 4 2 2 2 2 2 4 3 3 3 7 8 7 6 6 5 5 4 4 4
4 3 3 3 4 4 4 4 4 4 4 4 4 4 4 4 5 4 4 3 3 3 3 3 3 2 2 2 2 3 3 3 4 5 8 9 7 7 6 6 5 5 5
4 4 4 4 4 4 4 4 4 4 4 4 3 3 3 4 4 4 3 3 3 3 3 3 3 2 2 2 3 3 3 3 3 3 2 4 7 9 8 7 6 6 5
4 4 4 4 4 4 3 3 4 4 3 3 3 3 2 2 3 3 3 2 2 3 3 3 3 2 2 2 2 3 3 3 3 3 3 4 5 5 6 8 8 6 6
3 3 4 4 4 3 1 2 4 3 3 3 3 3 3 2 1 1 2 2 2 3 3 3 2 2 2 2 3 4 3 3 3 2 3 3 3 3 3 3 6 7 7
4 4 4 4 4 2 1 2 3 4 3 3 3 3 3 1 2 2 2 3 1 2 3 3 3 3 2 3 3 4 3 4 4 3 3 3 3 3 3 2 7 7 7
3 3 3 3 3 2 2 3 3 4 4 3 3 3 2 2 2 1 2 2 2 2 3 3 2 3 2 3 4 5 4 4 4 3 3 4 3 3 3 2 7 7 7
4 4 3 3 3 2 2 3 4 3 3 3 3 2 2 2 1 2 3 3 2 2 2 2 1 2 1 2 4 4 4 4 4 2 2 4 3 3 3 3 4 8 8
4 3 3 3 3 3 1 2 4 3 2 2 2 2 2 1 0 2 3 3 3 3 3 3 3 4 4 3 4 4 4 5 4 3 1 3 3 3 4 3 2 2 4
Wind_Direction
109 112 103 101 111 122 138 139 129 133 149 164 170 167 178 199 212 207 136 157 198 221 226 213 214 210 208 207 208 204 204 205 204 202 200 199 199 196 196 196 195 195 200
87 98 115 114 106 108 103 124 130 143 145 141 159 166 192 187 173 235 191 169 187 203 213 215 216 209 209 209 205 205 203 206 206 202 200 201 203 202 200 198 198 197 196
106 129 122 137 112 123 131 135 135 145 158 167 165 169 189 194 185 214 239 224 176 180 197 215 216 211 212 206 199 203 204 208 206 201 201 204 207 204 203 203 200 201 202
127 153 119 115 129 144 136 147 168 159 155 175 174 196 190 189 205 213 217 204 225 179 173 187 213 211 203 206 205 205 204 204 201 199 198 201 204 202 204 203 202 202 204
145 177 128 118 174 154 165 187 147 178 170 185 196 194 210 210 218 218 221 212 207 221 191 154 184 195 199 205 206 208 205 201 197 196 198 201 202 201 199 200 201 201 201
151 207 170 157 185 165 165 157 159 186 217 237 261 239 237 213 224 225 232 210 201 213 215 199 193 192 197 203 203 206 205 203 202 202 205 208 206 201 200 201 203 203 205
129 227 212 155 204 170 182 187 188 184 211 220 246 236 202 210 215 221 234 237 210 222 217 218 236 226 188 193 200 205 208 210 208 207 210 211 209 205 202 204 205 205 207
223 201 191 216 191 179 193 194 208 244 233 234 279 273 230 189 192 216 213 209 240 233 218 216 226 227 245 199 168 190 205 213 213 210 212 213 210 207 206 208 208 207 208
213 310 202 262 229 232 197 211 212 228 249 239 270 295 300 321 272 182 219 210 217 241 247 234 218 215 226 225 192 179 196 209 215 218 215 213 212 211 213 210 213 212 211
217 220 235 263 259 253 215 230 206 231 240 248 229 266 293 319 295 270 214 207 220 236 255 251 226 209 217 219 201 168 183 201 212 222 223 218 215 216 215 216 219 219 218
216 227 233 245 247 253 244 257 225 243 238 258 268 259 247 248 261 275 282 283 260 247 241 242 252 239 223 221 216 158 169 200 212 222 225 224 224 225 223 223 224 223 223
201 203 225 241 250 260 245 245 238 226 243 260 273 268 264 260 270 265 269 266 269 263 259 260 257 242 232 222 204 121 159 200 217 226 225 224 223 226 230 232 231 230 226
224 206 245 243 258 253 251 252 244 257 240 243 253 258 265 266 274 271 270 273 272 258 234 237 238 246 246 237 165 144 181 203 220 231 230 227 225 225 228 233 233 233 231
270 270 245 246 256 255 252 243 250 241 236 245 251 262 264 264 266 265 268 272 265 251 230 239 244 242 265 256 99 202 201 184 209 228 230 228 225 225 227 230 229 229 229
259 231 241 248 253 253 255 251 256 255 241 247 247 240 257 265 262 267 266 262 268 271 266 218 245 249 262 257 159 240 244 162 198 224 225 226 226 225 226 230 231 228 227
278 269 250 245 247 245 241 245 245 236 245 251 263 275 276 275 275 269 265 268 267 270 272 257 259 278 313 276 181 251 255 169 196 207 216 222 224 226 227 227 231 230 227
237 240 245 243 242 245 243 242 251 244 244 250 256 255 259 282 284 278 264 259 259 258 258 268 257 243 267 282 264 254 240 231 196 186 197 207 216 219 221 222 226 227 223
231 229 236 238 242 243 243 243 248 248 247 249 254 258 261 261 263 273 270 262 264 264 254 259 260 248 236 250 270 268 261 255 243 166 186 200 207 213 215 213 217 216 215
223 234 235 236 240 245 242 242 247 251 254 256 258 257 260 266 267 268 268 267 264 252 244 243 250 258 249 241 250 255 264 268 263 180 184 195 200 208 211 206 205 207 208
213 221 231 239 245 244 243 241 239 245 252 254 257 259 262 267 270 266 259 266 271 267 248 246 247 240 238 231 255 259 255 235 266 253 206 190 187 201 206 202 203 204 204
219 221 232 238 245 243 244 244 238 234 241 249 250 254 258 291 311 300 292 278 270 265 255 249 249 250 252 252 262 269 272 274 250 257 250 219 197 206 197 199 199 196 197
220 223 227 236 242 250 274 253 250 242 237 239 242 249 243 226 239 264 315 328 310 271 270 267 261 254 268 269 279 277 282 281 274 244 263 262 238 232 217 209 166 180 196
214 219 224 228 235 242 224 230 240 240 235 236 235 238 250 239 216 229 211 208 233 283 273 265 266 275 262 272 278 270 279 288 292 298 276 267 264 253 235 162 154 179 195
215 215 218 222 234 224 188 224 236 228 237 238 239 235 244 262 277 275 246 229 230 233 238 237 243 267 281 289 271 267 272 263 250 256 266 268 266 265 261 191 164 181 196
216 220 216 220 234 238 189 216 238 225 222 232 236 232 231 228 304 276 236 232 233 225 204 208 229 234 273 289 291 276 272 265 260 242 241 264 276 274 266 249 183 181 192
213 223 224 228 235 245 186 200 243 241 228 230 224 214 182 216 256 277 247 246 248 252 248 217 208 218 224 220 229 256 269 271 273 264 254 272 276 281 271 252 254 203 203